Information on these data can be found in provided Readme document
Contact Info: Zachary Fasnacht (zachary.fasnacht@ssaihq.com); Nickolay Krotkov (nickolay.a.krotkov@nasa.gov); Lok Lamsal (lok.lamsal@nasa.gov)

FillValue: -999.
ScaleFactor: 1e15
Units: molecules/cm^2

Date(yyyy-mm-dd),City,Country,LonCenter,LatCenter,BoundingCoordinates,Median,Q1,Q3,Mean,Baseline_Median,Baseline_Q1,Baseline_Q3,Baseline_Mean,NumGoodSamples,NumTotalSamples
2015-01-01,Liverpool,England,-3.0001,53.4167,[-3.5001 52.9167 -2.5001 53.9167],1.985,1.184,3.137,2.157,1.769,0.849,3.998,2.703,143.0,684.0
2015-01-02,Liverpool,England,-3.0001,53.4167,[-3.5001 52.9167 -2.5001 53.9167],2.121,1.184,3.21,2.269,1.862,0.819,4.073,2.722,122.0,691.0
2015-01-03,Liverpool,England,-3.0001,53.4167,[-3.5001 52.9167 -2.5001 53.9167],1.985,1.04,3.137,2.131,1.933,0.856,4.234,2.763,147.0,694.0
2015-01-04,Liverpool,England,-3.0001,53.4167,[-3.5001 52.9167 -2.5001 53.9167],1.985,1.04,3.137,2.131,1.924,0.792,4.207,2.753,147.0,688.0
2015-01-05,Liverpool,England,-3.0001,53.4167,[-3.5001 52.9167 -2.5001 53.9167],1.947,1.006,3.04,2.085,1.901,0.772,4.266,2.658,136.0,685.0
2015-01-06,Liverpool,England,-3.0001,53.4167,[-3.5001 52.9167 -2.5001 53.9167],1.998,0.94,3.137,2.103,1.848,0.756,4.124,2.692,142.0,684.0
2015-01-07,Liverpool,England,-3.0001,53.4167,[-3.5001 52.9167 -2.5001 53.9167],1.885,0.803,3.137,2.129,1.835,0.613,4.25,2.7,114.0,681.0
2015-01-08,Liverpool,England,-3.0001,53.4167,[-3.5001 52.9167 -2.5001 53.9167],1.658,0.765,2.909,2.035,1.789,0.689,4.334,2.698,143.0,682.0
2015-01-09,Liverpool,England,-3.0001,53.4167,[-3.5001 52.9167 -2.5001 53.9167],1.658,0.765,2.909,2.035,2.007,0.71,4.449,2.83,143.0,685.0
2015-01-10,Liverpool,England,-3.0001,53.4167,[-3.5001 52.9167 -2.5001 53.9167],1.591,0.727,2.763,1.908,1.818,0.663,4.429,2.748,139.0,635.0
2015-01-11,Liverpool,England,-3.0001,53.4167,[-3.5001 52.9167 -2.5001 53.9167],1.585,0.693,2.562,1.86,1.802,0.641,4.408,2.728,136.0,641.0
2015-01-12,Liverpool,England,-3.0001,53.4167,[-3.5001 52.9167 -2.5001 53.9167],1.634,0.706,2.763,2.008,1.828,0.677,4.559,2.831,142.0,646.0
2015-01-13,Liverpool,England,-3.0001,53.4167,[-3.5001 52.9167 -2.5001 53.9167],1.634,0.765,2.776,2.039,2.169,0.816,4.946,3.21,141.0,643.0
2015-01-14,Liverpool,England,-3.0001,53.4167,[-3.5001 52.9167 -2.5001 53.9167],1.591,0.677,2.776,2.016,2.023,0.646,4.422,2.851,108.0,642.0
2015-01-15,Liverpool,England,-3.0001,53.4167,[-3.5001 52.9167 -2.5001 53.9167],1.979,0.784,3.377,2.801,1.71,0.518,4.377,2.826,127.0,631.0
2015-01-16,Liverpool,England,-3.0001,53.4167,[-3.5001 52.9167 -2.5001 53.9167],2.019,0.706,3.879,3.124,1.608,0.483,3.954,2.668,91.0,633.0
2015-01-17,Liverpool,England,-3.0001,53.4167,[-3.5001 52.9167 -2.5001 53.9167],1.371,0.577,2.671,2.459,1.484,0.458,3.792,2.6,124.0,633.0
2015-01-18,Liverpool,England,-3.0001,53.4167,[-3.5001 52.9167 -2.5001 53.9167],1.371,0.37,2.909,2.702,1.461,0.41,3.916,2.637,101.0,644.0
2015-01-19,Liverpool,England,-3.0001,53.4167,[-3.5001 52.9167 -2.5001 53.9167],1.166,0.353,2.626,2.485,1.528,0.446,4.144,2.723,108.0,646.0
2015-01-20,Liverpool,England,-3.0001,53.4167,[-3.5001 52.9167 -2.5001 53.9167],1.166,0.353,2.626,2.485,1.49,0.494,4.159,2.751,108.0,642.0
2015-01-21,Liverpool,England,-3.0001,53.4167,[-3.5001 52.9167 -2.5001 53.9167],1.166,0.37,2.626,2.513,1.557,0.598,4.139,2.806,100.0,638.0
2015-01-22,Liverpool,England,-3.0001,53.4167,[-3.5001 52.9167 -2.5001 53.9167],1.166,0.37,2.626,2.388,1.604,0.551,3.984,2.771,102.0,638.0
2015-01-23,Liverpool,England,-3.0001,53.4167,[-3.5001 52.9167 -2.5001 53.9167],1.067,0.398,2.626,2.61,1.567,0.58,4.225,2.835,74.0,635.0
2015-01-24,Liverpool,England,-3.0001,53.4167,[-3.5001 52.9167 -2.5001 53.9167],1.046,0.398,2.193,2.214,1.543,0.533,4.031,2.729,91.0,638.0
2015-01-25,Liverpool,England,-3.0001,53.4167,[-3.5001 52.9167 -2.5001 53.9167],1.165,0.412,2.119,2.176,1.582,0.508,4.053,2.777,95.0,687.0
2015-01-26,Liverpool,England,-3.0001,53.4167,[-3.5001 52.9167 -2.5001 53.9167],1.147,0.398,2.119,2.144,1.681,0.751,3.856,2.697,97.0,684.0
2015-01-27,Liverpool,England,-3.0001,53.4167,[-3.5001 52.9167 -2.5001 53.9167],1.447,0.455,2.2,2.098,1.743,0.737,3.461,2.607,100.0,690.0
2015-01-28,Liverpool,England,-3.0001,53.4167,[-3.5001 52.9167 -2.5001 53.9167],1.447,0.606,2.534,2.133,1.381,0.608,2.662,1.907,125.0,695.0
2015-01-29,Liverpool,England,-3.0001,53.4167,[-3.5001 52.9167 -2.5001 53.9167],1.447,0.606,2.534,2.133,1.404,0.633,2.581,1.893,125.0,690.0
2015-01-30,Liverpool,England,-3.0001,53.4167,[-3.5001 52.9167 -2.5001 53.9167],1.476,0.606,2.671,2.059,1.433,0.656,2.652,1.891,122.0,693.0
2015-01-31,Liverpool,England,-3.0001,53.4167,[-3.5001 52.9167 -2.5001 53.9167],1.476,0.606,2.833,2.059,1.398,0.59,2.716,1.892,126.0,685.0
2015-02-01,Liverpool,England,-3.0001,53.4167,[-3.5001 52.9167 -2.5001 53.9167],1.718,1.046,3.169,2.361,1.48,0.722,2.807,1.974,94.0,688.0
2015-02-02,Liverpool,England,-3.0001,53.4167,[-3.5001 52.9167 -2.5001 53.9167],1.743,1.08,3.169,2.417,1.517,0.762,2.819,2.018,97.0,683.0
2015-02-03,Liverpool,England,-3.0001,53.4167,[-3.5001 52.9167 -2.5001 53.9167],1.909,1.165,3.169,2.561,1.711,0.754,2.753,2.009,90.0,692.0
2015-02-04,Liverpool,England,-3.0001,53.4167,[-3.5001 52.9167 -2.5001 53.9167],1.909,1.165,3.169,2.561,1.824,0.822,2.925,2.102,90.0,694.0
2015-02-05,Liverpool,England,-3.0001,53.4167,[-3.5001 52.9167 -2.5001 53.9167],1.909,1.267,3.169,2.597,1.836,0.878,2.944,2.181,88.0,692.0
2015-02-06,Liverpool,England,-3.0001,53.4167,[-3.5001 52.9167 -2.5001 53.9167],1.957,1.267,3.283,2.632,1.874,1.074,3.17,2.31,84.0,690.0
2015-02-07,Liverpool,England,-3.0001,53.4167,[-3.5001 52.9167 -2.5001 53.9167],1.957,1.267,3.295,2.654,1.949,1.051,3.367,2.532,90.0,688.0
2015-02-08,Liverpool,England,-3.0001,53.4167,[-3.5001 52.9167 -2.5001 53.9167],2.223,1.655,4.633,3.374,2.034,1.146,3.709,2.726,77.0,684.0
2015-02-09,Liverpool,England,-3.0001,53.4167,[-3.5001 52.9167 -2.5001 53.9167],2.833,1.775,4.633,3.402,2.22,1.304,3.816,2.906,84.0,688.0
2015-02-10,Liverpool,England,-3.0001,53.4167,[-3.5001 52.9167 -2.5001 53.9167],2.969,1.775,4.633,3.488,2.36,1.322,4.003,2.982,83.0,691.0
2015-02-11,Liverpool,England,-3.0001,53.4167,[-3.5001 52.9167 -2.5001 53.9167],3.094,1.625,4.643,3.716,2.345,1.254,3.997,3.032,74.0,642.0
2015-02-12,Liverpool,England,-3.0001,53.4167,[-3.5001 52.9167 -2.5001 53.9167],3.777,2.381,5.991,4.505,2.72,1.477,4.306,3.28,49.0,650.0
2015-02-13,Liverpool,England,-3.0001,53.4167,[-3.5001 52.9167 -2.5001 53.9167],3.777,2.381,5.991,4.505,2.771,1.513,4.453,3.33,49.0,656.0
2015-02-14,Liverpool,England,-3.0001,53.4167,[-3.5001 52.9167 -2.5001 53.9167],3.445,2.216,4.643,3.748,2.678,1.448,4.173,3.182,33.0,647.0
2015-02-15,Liverpool,England,-3.0001,53.4167,[-3.5001 52.9167 -2.5001 53.9167],3.445,2.223,4.643,3.849,2.91,1.786,4.458,3.3,29.0,648.0
2015-02-16,Liverpool,England,-3.0001,53.4167,[-3.5001 52.9167 -2.5001 53.9167],2.565,1.391,3.777,2.961,2.964,1.741,4.7,3.446,51.0,637.0
2015-02-17,Liverpool,England,-3.0001,53.4167,[-3.5001 52.9167 -2.5001 53.9167],2.626,1.391,3.777,3.038,3.353,1.875,5.939,4.263,46.0,642.0
2015-02-18,Liverpool,England,-3.0001,53.4167,[-3.5001 52.9167 -2.5001 53.9167],2.626,1.391,3.777,3.038,3.6,1.992,5.846,4.427,46.0,643.0
2015-02-19,Liverpool,England,-3.0001,53.4167,[-3.5001 52.9167 -2.5001 53.9167],2.626,1.391,3.777,3.038,3.907,2.142,6.796,4.781,46.0,654.0
2015-02-20,Liverpool,England,-3.0001,53.4167,[-3.5001 52.9167 -2.5001 53.9167],2.593,1.44,3.777,3.013,3.909,2.146,6.686,4.816,52.0,653.0
2015-02-21,Liverpool,England,-3.0001,53.4167,[-3.5001 52.9167 -2.5001 53.9167],2.593,1.44,3.777,3.013,4.039,2.115,6.575,4.801,52.0,648.0
2015-02-22,Liverpool,England,-3.0001,53.4167,[-3.5001 52.9167 -2.5001 53.9167],2.593,1.44,3.777,2.981,3.925,2.194,6.646,4.827,45.0,645.0
2015-02-23,Liverpool,England,-3.0001,53.4167,[-3.5001 52.9167 -2.5001 53.9167],2.535,1.391,3.445,2.466,4.098,2.279,7.079,4.909,54.0,644.0
2015-02-24,Liverpool,England,-3.0001,53.4167,[-3.5001 52.9167 -2.5001 53.9167],1.827,0.852,2.707,1.957,3.958,2.158,6.807,4.843,51.0,639.0
2015-02-25,Liverpool,England,-3.0001,53.4167,[-3.5001 52.9167 -2.5001 53.9167],2.009,0.889,2.919,2.07,3.928,2.298,6.737,4.737,83.0,642.0
2015-02-26,Liverpool,England,-3.0001,53.4167,[-3.5001 52.9167 -2.5001 53.9167],2.009,0.889,2.919,2.07,3.986,2.342,6.774,4.732,83.0,690.0
2015-02-27,Liverpool,England,-3.0001,53.4167,[-3.5001 52.9167 -2.5001 53.9167],2.274,1.197,3.061,2.309,3.784,2.231,6.462,4.504,110.0,686.0
2015-02-28,Liverpool,England,-3.0001,53.4167,[-3.5001 52.9167 -2.5001 53.9167],2.274,1.197,3.061,2.309,3.729,2.123,6.373,4.354,110.0,693.0
2015-03-01,Liverpool,England,-3.0001,53.4167,[-3.5001 52.9167 -2.5001 53.9167],2.274,1.197,3.061,2.309,3.548,2.036,6.117,4.242,110.0,699.0
2015-03-02,Liverpool,England,-3.0001,53.4167,[-3.5001 52.9167 -2.5001 53.9167],2.274,1.197,3.061,2.309,3.526,1.935,5.956,4.139,110.0,692.0
2015-03-03,Liverpool,England,-3.0001,53.4167,[-3.5001 52.9167 -2.5001 53.9167],2.144,1.468,3.211,2.388,3.504,1.949,5.849,4.054,104.0,693.0
2015-03-04,Liverpool,England,-3.0001,53.4167,[-3.5001 52.9167 -2.5001 53.9167],2.144,1.468,3.211,2.388,2.734,1.565,4.47,3.226,104.0,685.0
2015-03-05,Liverpool,England,-3.0001,53.4167,[-3.5001 52.9167 -2.5001 53.9167],2.144,1.468,3.211,2.388,2.667,1.376,4.407,3.111,104.0,686.0
2015-03-06,Liverpool,England,-3.0001,53.4167,[-3.5001 52.9167 -2.5001 53.9167],2.144,1.468,3.211,2.388,2.385,1.175,3.804,2.578,104.0,681.0
2015-03-07,Liverpool,England,-3.0001,53.4167,[-3.5001 52.9167 -2.5001 53.9167],2.108,1.468,3.211,2.375,2.286,0.99,3.819,2.726,98.0,693.0
2015-03-08,Liverpool,England,-3.0001,53.4167,[-3.5001 52.9167 -2.5001 53.9167],2.108,1.468,3.211,2.375,2.487,1.11,4.343,2.953,98.0,694.0
2015-03-09,Liverpool,England,-3.0001,53.4167,[-3.5001 52.9167 -2.5001 53.9167],2.108,1.468,3.211,2.375,2.45,1.121,4.427,2.984,98.0,692.0
2015-03-10,Liverpool,England,-3.0001,53.4167,[-3.5001 52.9167 -2.5001 53.9167],2.014,1.297,3.152,2.344,2.418,1.06,4.436,2.996,85.0,689.0
2015-03-11,Liverpool,England,-3.0001,53.4167,[-3.5001 52.9167 -2.5001 53.9167],2.173,1.689,3.319,2.576,3.129,1.431,5.72,3.874,93.0,687.0
2015-03-12,Liverpool,England,-3.0001,53.4167,[-3.5001 52.9167 -2.5001 53.9167],2.528,1.803,4.145,2.964,3.309,1.514,5.911,3.996,77.0,683.0
2015-03-13,Liverpool,England,-3.0001,53.4167,[-3.5001 52.9167 -2.5001 53.9167],2.619,1.803,4.145,3.055,3.35,1.623,6.025,4.089,82.0,687.0
2015-03-14,Liverpool,England,-3.0001,53.4167,[-3.5001 52.9167 -2.5001 53.9167],2.014,0.986,3.323,2.401,3.434,1.57,5.844,4.083,66.0,690.0
2015-03-15,Liverpool,England,-3.0001,53.4167,[-3.5001 52.9167 -2.5001 53.9167],2.014,0.986,3.323,2.401,3.489,1.708,5.938,4.248,66.0,640.0
2015-03-16,Liverpool,England,-3.0001,53.4167,[-3.5001 52.9167 -2.5001 53.9167],2.014,0.986,3.323,2.401,3.896,2.134,6.287,4.479,66.0,645.0
2015-03-17,Liverpool,England,-3.0001,53.4167,[-3.5001 52.9167 -2.5001 53.9167],2.014,0.774,3.46,2.528,3.897,2.219,6.484,4.561,75.0,651.0
2015-03-18,Liverpool,England,-3.0001,53.4167,[-3.5001 52.9167 -2.5001 53.9167],2.246,0.681,4.145,2.641,3.939,2.286,6.363,4.419,58.0,644.0
2015-03-19,Liverpool,England,-3.0001,53.4167,[-3.5001 52.9167 -2.5001 53.9167],1.803,0.609,3.783,2.439,3.719,2.218,5.955,4.276,63.0,678.0
2015-03-20,Liverpool,England,-3.0001,53.4167,[-3.5001 52.9167 -2.5001 53.9167],1.579,0.681,3.716,2.374,3.639,2.135,5.896,4.218,72.0,696.0
2015-03-21,Liverpool,England,-3.0001,53.4167,[-3.5001 52.9167 -2.5001 53.9167],1.579,0.681,3.716,2.374,3.55,2.142,5.712,4.19,72.0,718.0
2015-03-22,Liverpool,England,-3.0001,53.4167,[-3.5001 52.9167 -2.5001 53.9167],1.501,0.565,3.323,2.161,3.269,2.04,5.388,3.927,78.0,716.0
2015-03-23,Liverpool,England,-3.0001,53.4167,[-3.5001 52.9167 -2.5001 53.9167],1.501,0.565,3.323,2.161,3.157,1.881,5.273,3.866,78.0,726.0
2015-03-24,Liverpool,England,-3.0001,53.4167,[-3.5001 52.9167 -2.5001 53.9167],1.751,0.681,3.14,2.052,3.157,1.832,5.282,3.764,94.0,724.0
2015-03-25,Liverpool,England,-3.0001,53.4167,[-3.5001 52.9167 -2.5001 53.9167],1.751,0.681,3.14,2.052,3.143,1.713,5.462,3.785,94.0,720.0
2015-03-26,Liverpool,England,-3.0001,53.4167,[-3.5001 52.9167 -2.5001 53.9167],1.751,0.681,3.111,2.057,2.78,1.472,4.517,3.22,87.0,715.0
2015-03-27,Liverpool,England,-3.0001,53.4167,[-3.5001 52.9167 -2.5001 53.9167],1.344,0.328,2.246,1.715,2.676,1.316,4.329,3.117,70.0,713.0
2015-03-28,Liverpool,England,-3.0001,53.4167,[-3.5001 52.9167 -2.5001 53.9167],1.344,0.17,1.997,1.529,2.538,1.188,4.097,2.985,70.0,710.0
2015-03-29,Liverpool,England,-3.0001,53.4167,[-3.5001 52.9167 -2.5001 53.9167],1.487,0.565,2.108,1.932,2.576,1.284,4.084,3.044,77.0,701.0
2015-03-30,Liverpool,England,-3.0001,53.4167,[-3.5001 52.9167 -2.5001 53.9167],1.501,0.624,2.045,1.899,2.581,1.329,4.145,3.118,84.0,751.0
2015-03-31,Liverpool,England,-3.0001,53.4167,[-3.5001 52.9167 -2.5001 53.9167],1.752,0.989,2.753,2.334,2.554,1.427,4.199,3.141,121.0,751.0
2015-04-01,Liverpool,England,-3.0001,53.4167,[-3.5001 52.9167 -2.5001 53.9167],1.903,1.223,3.421,3.17,2.34,1.381,4.225,3.239,119.0,758.0
2015-04-02,Liverpool,England,-3.0001,53.4167,[-3.5001 52.9167 -2.5001 53.9167],2.099,1.35,7.136,4.861,2.698,1.494,5.743,4.016,148.0,764.0
2015-04-03,Liverpool,England,-3.0001,53.4167,[-3.5001 52.9167 -2.5001 53.9167],2.223,1.41,7.136,5.04,2.893,1.623,5.313,4.123,143.0,724.0
2015-04-04,Liverpool,England,-3.0001,53.4167,[-3.5001 52.9167 -2.5001 53.9167],2.414,1.41,6.484,4.846,3.265,1.768,5.586,4.241,150.0,691.0
2015-04-05,Liverpool,England,-3.0001,53.4167,[-3.5001 52.9167 -2.5001 53.9167],2.414,1.41,6.484,4.846,3.249,1.726,5.615,4.278,150.0,665.0
2015-04-06,Liverpool,England,-3.0001,53.4167,[-3.5001 52.9167 -2.5001 53.9167],2.455,1.648,7.136,5.09,3.199,1.887,5.687,4.35,144.0,664.0
2015-04-07,Liverpool,England,-3.0001,53.4167,[-3.5001 52.9167 -2.5001 53.9167],2.455,1.435,5.836,4.708,3.122,1.909,5.242,4.212,171.0,683.0
2015-04-08,Liverpool,England,-3.0001,53.4167,[-3.5001 52.9167 -2.5001 53.9167],2.725,1.494,7.136,5.131,3.532,2.006,5.974,4.489,155.0,720.0
2015-04-09,Liverpool,England,-3.0001,53.4167,[-3.5001 52.9167 -2.5001 53.9167],2.822,1.652,7.291,5.24,3.534,2.101,6.156,4.631,165.0,753.0
2015-04-10,Liverpool,England,-3.0001,53.4167,[-3.5001 52.9167 -2.5001 53.9167],2.946,1.721,7.291,5.367,3.565,2.188,6.217,4.704,156.0,749.0
2015-04-11,Liverpool,England,-3.0001,53.4167,[-3.5001 52.9167 -2.5001 53.9167],3.191,1.863,7.184,5.393,3.652,2.359,6.362,4.844,176.0,745.0
2015-04-12,Liverpool,England,-3.0001,53.4167,[-3.5001 52.9167 -2.5001 53.9167],3.288,1.903,7.291,5.567,3.781,2.564,6.485,4.975,171.0,743.0
2015-04-13,Liverpool,England,-3.0001,53.4167,[-3.5001 52.9167 -2.5001 53.9167],4.05,2.326,8.667,6.124,4.018,2.646,6.858,5.06,170.0,752.0
2015-04-14,Liverpool,England,-3.0001,53.4167,[-3.5001 52.9167 -2.5001 53.9167],5.213,2.635,9.113,6.735,4.38,2.772,7.239,5.386,199.0,754.0
2015-04-15,Liverpool,England,-3.0001,53.4167,[-3.5001 52.9167 -2.5001 53.9167],6.564,3.534,9.839,7.482,4.857,3.026,7.412,5.588,175.0,755.0
2015-04-16,Liverpool,England,-3.0001,53.4167,[-3.5001 52.9167 -2.5001 53.9167],6.533,3.196,9.839,7.3,4.894,2.926,7.422,5.522,168.0,705.0
2015-04-17,Liverpool,England,-3.0001,53.4167,[-3.5001 52.9167 -2.5001 53.9167],5.939,3.191,9.256,6.348,4.393,2.806,6.627,4.961,141.0,734.0
2015-04-18,Liverpool,England,-3.0001,53.4167,[-3.5001 52.9167 -2.5001 53.9167],5.939,3.191,9.256,6.348,4.439,2.808,6.912,5.019,141.0,740.0
2015-04-19,Liverpool,England,-3.0001,53.4167,[-3.5001 52.9167 -2.5001 53.9167],6.564,4.05,9.548,6.969,4.15,2.704,6.309,4.759,125.0,760.0
2015-04-20,Liverpool,England,-3.0001,53.4167,[-3.5001 52.9167 -2.5001 53.9167],6.564,3.969,9.548,6.909,4.199,2.703,6.356,4.778,135.0,797.0
2015-04-21,Liverpool,England,-3.0001,53.4167,[-3.5001 52.9167 -2.5001 53.9167],6.136,2.976,9.256,6.35,4.094,2.308,6.172,4.616,163.0,817.0
2015-04-22,Liverpool,England,-3.0001,53.4167,[-3.5001 52.9167 -2.5001 53.9167],6.514,3.196,9.256,6.56,4.24,2.421,6.287,4.757,147.0,819.0
2015-04-23,Liverpool,England,-3.0001,53.4167,[-3.5001 52.9167 -2.5001 53.9167],5.563,2.919,9.113,6.221,3.938,2.377,6.139,4.546,160.0,793.0
2015-04-24,Liverpool,England,-3.0001,53.4167,[-3.5001 52.9167 -2.5001 53.9167],5.449,2.919,9.256,6.191,3.785,2.178,6.008,4.352,150.0,771.0
2015-04-25,Liverpool,England,-3.0001,53.4167,[-3.5001 52.9167 -2.5001 53.9167],5.449,2.919,9.256,6.191,3.598,1.896,5.905,4.265,150.0,776.0
2015-04-26,Liverpool,England,-3.0001,53.4167,[-3.5001 52.9167 -2.5001 53.9167],5.548,2.475,9.548,6.27,3.511,1.728,5.786,4.035,130.0,775.0
2015-04-27,Liverpool,England,-3.0001,53.4167,[-3.5001 52.9167 -2.5001 53.9167],4.966,2.475,9.256,6.013,3.309,1.657,5.841,3.996,143.0,774.0
2015-04-28,Liverpool,England,-3.0001,53.4167,[-3.5001 52.9167 -2.5001 53.9167],4.283,1.907,8.016,5.509,3.228,1.601,5.32,3.78,132.0,772.0
2015-04-29,Liverpool,England,-3.0001,53.4167,[-3.5001 52.9167 -2.5001 53.9167],3.626,1.263,6.564,4.231,2.812,1.354,4.462,3.11,96.0,775.0
2015-04-30,Liverpool,England,-3.0001,53.4167,[-3.5001 52.9167 -2.5001 53.9167],1.837,0.856,3.718,2.461,2.44,1.265,3.95,2.791,104.0,778.0
2015-05-01,Liverpool,England,-3.0001,53.4167,[-3.5001 52.9167 -2.5001 53.9167],1.837,0.856,3.718,2.461,2.381,1.286,3.606,2.603,104.0,835.0
2015-05-02,Liverpool,England,-3.0001,53.4167,[-3.5001 52.9167 -2.5001 53.9167],1.626,0.794,3.187,2.189,2.447,1.365,3.597,2.673,114.0,811.0
2015-05-03,Liverpool,England,-3.0001,53.4167,[-3.5001 52.9167 -2.5001 53.9167],1.626,0.794,3.187,2.189,2.561,1.37,3.93,2.838,114.0,825.0
2015-05-04,Liverpool,England,-3.0001,53.4167,[-3.5001 52.9167 -2.5001 53.9167],1.928,0.856,2.976,2.252,2.673,1.441,3.87,2.983,129.0,809.0
2015-05-05,Liverpool,England,-3.0001,53.4167,[-3.5001 52.9167 -2.5001 53.9167],1.907,0.81,2.963,1.994,2.638,1.469,3.819,2.9,119.0,774.0
2015-05-06,Liverpool,England,-3.0001,53.4167,[-3.5001 52.9167 -2.5001 53.9167],1.907,0.859,3.252,2.144,2.696,1.536,4.125,3.092,105.0,764.0
2015-05-07,Liverpool,England,-3.0001,53.4167,[-3.5001 52.9167 -2.5001 53.9167],2.165,0.921,3.762,2.352,2.715,1.54,4.155,3.026,100.0,740.0
2015-05-08,Liverpool,England,-3.0001,53.4167,[-3.5001 52.9167 -2.5001 53.9167],2.229,0.924,4.607,2.969,2.645,1.474,4.172,3.056,97.0,762.0
2015-05-09,Liverpool,England,-3.0001,53.4167,[-3.5001 52.9167 -2.5001 53.9167],2.159,0.809,4.145,2.632,2.652,1.455,4.126,3.023,129.0,770.0
2015-05-10,Liverpool,England,-3.0001,53.4167,[-3.5001 52.9167 -2.5001 53.9167],2.159,0.809,4.145,2.632,2.626,1.405,4.239,3.034,129.0,807.0
2015-05-11,Liverpool,England,-3.0001,53.4167,[-3.5001 52.9167 -2.5001 53.9167],1.979,0.859,3.252,2.493,2.554,1.335,4.141,3.033,146.0,843.0
2015-05-12,Liverpool,England,-3.0001,53.4167,[-3.5001 52.9167 -2.5001 53.9167],1.886,0.859,2.917,2.425,2.476,1.337,4.176,3.043,133.0,859.0
2015-05-13,Liverpool,England,-3.0001,53.4167,[-3.5001 52.9167 -2.5001 53.9167],1.886,0.809,2.917,2.427,2.459,1.124,4.012,3.003,129.0,864.0
2015-05-14,Liverpool,England,-3.0001,53.4167,[-3.5001 52.9167 -2.5001 53.9167],1.928,0.859,2.917,2.431,2.535,1.162,4.281,3.141,136.0,880.0
2015-05-15,Liverpool,England,-3.0001,53.4167,[-3.5001 52.9167 -2.5001 53.9167],2.165,0.892,3.455,2.707,2.759,1.239,4.422,3.249,115.0,896.0
2015-05-16,Liverpool,England,-3.0001,53.4167,[-3.5001 52.9167 -2.5001 53.9167],1.811,0.496,3.035,2.35,2.505,1.027,4.125,3.023,140.0,918.0
2015-05-17,Liverpool,England,-3.0001,53.4167,[-3.5001 52.9167 -2.5001 53.9167],1.979,0.665,3.319,2.514,2.444,1.037,4.21,3.0,131.0,947.0
2015-05-18,Liverpool,England,-3.0001,53.4167,[-3.5001 52.9167 -2.5001 53.9167],1.979,0.665,3.319,2.514,2.442,1.015,4.147,2.91,131.0,890.0
2015-05-19,Liverpool,England,-3.0001,53.4167,[-3.5001 52.9167 -2.5001 53.9167],1.792,0.496,3.539,2.488,2.397,1.016,4.067,2.849,117.0,916.0
2015-05-20,Liverpool,England,-3.0001,53.4167,[-3.5001 52.9167 -2.5001 53.9167],1.792,0.496,3.539,2.488,2.451,1.005,4.147,2.886,117.0,914.0
2015-05-21,Liverpool,England,-3.0001,53.4167,[-3.5001 52.9167 -2.5001 53.9167],1.686,0.332,3.319,2.376,2.341,0.929,4.084,2.828,103.0,912.0
2015-05-22,Liverpool,England,-3.0001,53.4167,[-3.5001 52.9167 -2.5001 53.9167],1.496,0.302,2.719,2.164,2.384,0.929,4.028,2.828,101.0,946.0
2015-05-23,Liverpool,England,-3.0001,53.4167,[-3.5001 52.9167 -2.5001 53.9167],1.016,0.222,2.294,1.418,2.378,1.088,4.131,2.786,97.0,947.0
2015-05-24,Liverpool,England,-3.0001,53.4167,[-3.5001 52.9167 -2.5001 53.9167],1.038,0.183,2.036,1.335,2.674,1.137,4.396,3.041,68.0,991.0
2015-05-25,Liverpool,England,-3.0001,53.4167,[-3.5001 52.9167 -2.5001 53.9167],1.038,0.183,2.036,1.335,2.707,1.151,4.388,3.059,68.0,995.0
2015-05-26,Liverpool,England,-3.0001,53.4167,[-3.5001 52.9167 -2.5001 53.9167],0.551,0.111,1.774,1.157,2.757,1.241,4.401,3.108,53.0,1023.0
2015-05-27,Liverpool,England,-3.0001,53.4167,[-3.5001 52.9167 -2.5001 53.9167],0.6,0.111,1.668,0.994,2.518,1.171,3.947,2.74,81.0,1036.0
2015-05-28,Liverpool,England,-3.0001,53.4167,[-3.5001 52.9167 -2.5001 53.9167],0.6,0.111,1.668,0.994,2.373,1.259,3.786,2.683,79.0,1066.0
2015-05-29,Liverpool,England,-3.0001,53.4167,[-3.5001 52.9167 -2.5001 53.9167],0.6,-0.067,1.668,0.955,2.338,1.172,3.604,2.574,74.0,1076.0
2015-05-30,Liverpool,England,-3.0001,53.4167,[-3.5001 52.9167 -2.5001 53.9167],0.6,0.08,1.668,1.011,2.227,1.107,3.551,2.532,79.0,1096.0
2015-05-31,Liverpool,England,-3.0001,53.4167,[-3.5001 52.9167 -2.5001 53.9167],0.551,-0.418,1.662,0.869,2.33,1.215,3.829,2.663,71.0,1114.0
2015-06-01,Liverpool,England,-3.0001,53.4167,[-3.5001 52.9167 -2.5001 53.9167],1.259,0.066,2.255,1.371,2.317,1.206,3.7,2.588,99.0,1133.0
2015-06-02,Liverpool,England,-3.0001,53.4167,[-3.5001 52.9167 -2.5001 53.9167],1.259,0.066,2.255,1.372,2.244,1.162,3.465,2.467,100.0,1233.0
2015-06-03,Liverpool,England,-3.0001,53.4167,[-3.5001 52.9167 -2.5001 53.9167],1.794,0.415,4.153,2.634,2.208,1.029,3.928,2.72,136.0,1254.0
2015-06-04,Liverpool,England,-3.0001,53.4167,[-3.5001 52.9167 -2.5001 53.9167],2.351,0.6,5.334,3.192,2.338,0.958,4.277,2.836,146.0,1299.0
2015-06-05,Liverpool,England,-3.0001,53.4167,[-3.5001 52.9167 -2.5001 53.9167],2.563,0.6,5.334,3.221,2.252,0.827,4.122,2.718,148.0,1320.0
2015-06-06,Liverpool,England,-3.0001,53.4167,[-3.5001 52.9167 -2.5001 53.9167],2.602,0.822,5.354,3.302,2.214,0.9,4.043,2.682,144.0,1320.0
2015-06-07,Liverpool,England,-3.0001,53.4167,[-3.5001 52.9167 -2.5001 53.9167],2.563,0.665,5.354,3.246,2.151,0.825,3.979,2.63,142.0,1342.0
2015-06-08,Liverpool,England,-3.0001,53.4167,[-3.5001 52.9167 -2.5001 53.9167],2.587,0.646,5.303,3.208,2.126,0.783,3.749,2.409,155.0,1308.0
2015-06-09,Liverpool,England,-3.0001,53.4167,[-3.5001 52.9167 -2.5001 53.9167],2.563,0.665,5.303,3.203,2.129,0.78,3.745,2.398,157.0,1292.0
2015-06-10,Liverpool,England,-3.0001,53.4167,[-3.5001 52.9167 -2.5001 53.9167],2.602,0.815,5.303,3.246,2.094,0.82,3.669,2.357,155.0,1248.0
2015-06-11,Liverpool,England,-3.0001,53.4167,[-3.5001 52.9167 -2.5001 53.9167],3.835,1.662,6.044,3.851,2.538,1.124,3.936,2.565,128.0,1265.0
2015-06-12,Liverpool,England,-3.0001,53.4167,[-3.5001 52.9167 -2.5001 53.9167],3.833,1.662,6.044,3.847,2.529,1.059,3.976,2.557,129.0,1257.0
2015-06-13,Liverpool,England,-3.0001,53.4167,[-3.5001 52.9167 -2.5001 53.9167],3.832,1.674,6.044,3.859,2.452,1.073,3.76,2.547,127.0,1256.0
2015-06-14,Liverpool,England,-3.0001,53.4167,[-3.5001 52.9167 -2.5001 53.9167],3.56,1.583,6.021,3.791,2.188,0.96,3.637,2.371,126.0,1251.0
2015-06-15,Liverpool,England,-3.0001,53.4167,[-3.5001 52.9167 -2.5001 53.9167],4.127,2.187,6.114,4.321,2.125,0.98,3.433,2.325,125.0,1239.0
2015-06-16,Liverpool,England,-3.0001,53.4167,[-3.5001 52.9167 -2.5001 53.9167],4.565,1.379,6.627,4.348,2.102,0.72,3.369,2.176,105.0,1244.0
2015-06-17,Liverpool,England,-3.0001,53.4167,[-3.5001 52.9167 -2.5001 53.9167],4.565,1.379,6.627,4.353,2.098,0.714,3.261,2.105,105.0,1244.0
2015-06-18,Liverpool,England,-3.0001,53.4167,[-3.5001 52.9167 -2.5001 53.9167],2.254,1.065,5.459,3.264,1.534,0.597,2.831,1.778,68.0,1257.0
2015-06-19,Liverpool,England,-3.0001,53.4167,[-3.5001 52.9167 -2.5001 53.9167],1.197,0.646,2.254,1.35,1.504,0.586,2.487,1.626,58.0,1168.0